CST4147 MKJP-MMCZ

Flight info

Callsign CST4147
Flight time 1h 37m
Altitude 38000
Route GUDIL5 KEMBO UG633 GCM UR640 MAMBI DCT DUKTA DCT ILUBA ILUBA1C
Aircraft A333/H-SDE3GHIJ2J3J5M1RVWXY/LB2D1

Departure

Time 2026-04-22 16:22
Airport Norman Manley International Airport (MKJP)

Arrival

Time 2026-04-22 18:00
Airport Cozumel International Airport (MMCZ)
Time Latitude Longitude Altitude Speed Heading
2026-04-22 16:07 17.93573 -76.78047 36 ft 0 kts 101°
2026-04-22 16:14 17.93573 -76.78048 36 ft 0 kts 101°
2026-04-22 16:15 17.93575 -76.78055 36 ft 2 kts 101°
2026-04-22 16:16 17.93578 -76.78070 36 ft 2 kts 101°
2026-04-22 16:16 17.93581 -76.78085 36 ft 2 kts 101°
2026-04-22 16:16 17.93584 -76.78101 36 ft 2 kts 101°
2026-04-22 16:16 17.93588 -76.78116 36 ft 2 kts 129°
2026-04-22 16:17 17.93599 -76.78126 36 ft 2 kts 162°
2026-04-22 16:17 17.93614 -76.78128 36 ft 2 kts 194°
2026-04-22 16:17 17.93621 -76.78126 36 ft 1 kts 202°
2026-04-22 16:17 17.93622 -76.78125 36 ft 0 kts 202°
2026-04-22 16:19 17.93604 -76.78133 36 ft 8 kts 200°
2026-04-22 16:19 17.93536 -76.78152 36 ft 10 kts 184°
2026-04-22 16:19 17.93485 -76.78119 36 ft 8 kts 107°
2026-04-22 16:20 17.93462 -76.78059 36 ft 11 kts 112°
2026-04-22 16:20 17.93424 -76.77960 37 ft 17 kts 112°
2026-04-22 16:20 17.93374 -76.77830 40 ft 20 kts 111°
2026-04-22 16:20 17.93331 -76.77744 39 ft 12 kts 143°
2026-04-22 16:21 17.93255 -76.77753 39 ft 11 kts 198°
2026-04-22 16:21 17.93206 -76.77787 39 ft 7 kts 266°
2026-04-22 16:21 17.93219 -76.77850 38 ft 15 kts 290°
2026-04-22 16:21 17.93335 -76.78150 36 ft 80 kts 291°
2026-04-22 16:22 17.94054 -76.80014 331 ft 168 kts 283°
2026-04-22 16:22 17.94409 -76.81151 1011 ft 168 kts 286°
2026-04-22 16:22 17.94837 -76.82238 1706 ft 157 kts 296°
2026-04-22 16:23 17.95754 -76.84602 2242 ft 189 kts 293°
2026-04-22 16:23 17.96253 -76.85929 2557 ft 203 kts 293°
2026-04-22 16:23 17.96796 -76.87374 2820 ft 224 kts 292°
2026-04-22 16:24 17.97395 -76.88971 3270 ft 243 kts 292°
2026-04-22 16:24 17.99004 -76.92334 4405 ft 271 kts 300°
2026-04-22 16:24 17.99906 -76.94057 5221 ft 274 kts 300°
2026-04-22 16:25 18.00824 -76.95804 6012 ft 278 kts 300°
2026-04-22 16:25 18.02725 -76.99398 7598 ft 285 kts 300°
2026-04-22 16:25 18.03691 -77.01225 8376 ft 288 kts 300°
2026-04-22 16:26 18.04663 -77.03058 9115 ft 292 kts 300°
2026-04-22 16:26 18.05653 -77.04926 9831 ft 295 kts 300°
2026-04-22 16:26 18.06658 -77.06827 10465 ft 302 kts 300°
2026-04-22 16:26 18.07705 -77.08800 10793 ft 320 kts 300°
2026-04-22 16:27 18.08825 -77.10912 11092 ft 338 kts 300°
2026-04-22 16:27 18.10002 -77.13132 11340 ft 356 kts 300°
2026-04-22 16:27 18.11147 -77.15298 11587 ft 371 kts 300°
2026-04-22 16:27 18.12410 -77.17685 12193 ft 374 kts 300°
2026-04-22 16:28 18.13675 -77.20077 12868 ft 376 kts 300°
2026-04-22 16:28 18.14941 -77.22475 13464 ft 378 kts 300°
2026-04-22 16:28 18.16247 -77.24866 14039 ft 380 kts 303°
2026-04-22 16:28 18.17595 -77.27251 14571 ft 383 kts 301°
2026-04-22 16:29 18.18906 -77.29705 15115 ft 386 kts 300°
2026-04-22 16:29 18.20192 -77.32174 15668 ft 387 kts 300°
2026-04-22 16:29 18.21480 -77.34669 16187 ft 390 kts 299°
2026-04-22 16:29 18.22865 -77.37124 16706 ft 390 kts 301°
2026-04-22 16:30 18.23682 -77.38829 17005 ft 392 kts 296°
2026-04-22 16:30 18.25312 -77.42269 17640 ft 395 kts 298°
2026-04-22 16:30 18.26566 -77.44830 18120 ft 396 kts 298°
2026-04-22 16:30 18.27846 -77.47420 18570 ft 398 kts 298°
2026-04-22 16:31 18.29115 -77.49981 18982 ft 401 kts 298°
2026-04-22 16:31 18.30415 -77.52602 19410 ft 403 kts 298°
2026-04-22 16:31 18.31710 -77.55212 19842 ft 405 kts 298°
2026-04-22 16:31 18.33022 -77.57858 20267 ft 406 kts 297°
2026-04-22 16:32 18.34329 -77.60493 20688 ft 407 kts 297°
2026-04-22 16:32 18.35650 -77.63159 21076 ft 409 kts 297°
2026-04-22 16:32 18.36961 -77.65805 21439 ft 410 kts 297°
2026-04-22 16:32 18.38291 -77.68490 21804 ft 412 kts 297°
2026-04-22 16:33 18.39615 -77.71165 22165 ft 414 kts 297°
2026-04-22 16:33 18.40949 -77.73860 22511 ft 416 kts 296°
2026-04-22 16:33 18.42278 -77.76547 22863 ft 418 kts 296°
2026-04-22 16:33 18.43630 -77.79284 23180 ft 420 kts 296°
2026-04-22 16:34 18.44973 -77.82001 23528 ft 421 kts 296°
2026-04-22 16:34 18.46343 -77.84776 23884 ft 423 kts 296°
2026-04-22 16:34 18.47705 -77.87534 24209 ft 424 kts 296°
2026-04-22 16:34 18.49067 -77.90295 24542 ft 426 kts 296°
2026-04-22 16:35 18.50278 -77.93137 24835 ft 426 kts 287°
2026-04-22 16:35 18.51011 -77.96175 25183 ft 427 kts 283°
2026-04-22 16:35 18.51731 -77.99198 25501 ft 428 kts 283°
2026-04-22 16:35 18.52456 -78.02247 25820 ft 429 kts 283°
2026-04-22 16:36 18.53184 -78.05299 26139 ft 431 kts 283°
2026-04-22 16:36 18.53915 -78.08369 26473 ft 432 kts 283°
2026-04-22 16:36 18.54645 -78.11433 26797 ft 433 kts 283°
2026-04-22 16:36 18.55380 -78.14526 27096 ft 434 kts 283°
2026-04-22 16:37 18.56101 -78.17558 27347 ft 436 kts 283°
2026-04-22 16:37 18.56856 -78.20736 27645 ft 438 kts 283°
2026-04-22 16:37 18.57600 -78.23874 27971 ft 439 kts 283°
2026-04-22 16:37 18.58339 -78.26992 28238 ft 440 kts 283°
2026-04-22 16:38 18.59081 -78.30125 28493 ft 442 kts 283°
2026-04-22 16:38 18.59823 -78.33260 28725 ft 443 kts 283°
2026-04-22 16:38 18.60571 -78.36418 28974 ft 444 kts 283°
2026-04-22 16:38 18.61317 -78.39573 29259 ft 444 kts 283°
2026-04-22 16:39 18.62063 -78.42735 29617 ft 442 kts 283°
2026-04-22 16:39 18.62808 -78.45891 29951 ft 441 kts 283°
2026-04-22 16:39 18.63549 -78.49033 30319 ft 440 kts 283°
2026-04-22 16:39 18.64275 -78.52111 30684 ft 438 kts 283°
2026-04-22 16:40 18.65014 -78.55251 31032 ft 437 kts 283°
2026-04-22 16:40 18.65741 -78.58342 31356 ft 435 kts 283°
2026-04-22 16:40 18.67203 -78.64562 32013 ft 433 kts 283°
2026-04-22 16:41 18.67931 -78.67667 32305 ft 433 kts 282°
2026-04-22 16:41 18.68648 -78.70726 32644 ft 432 kts 282°
2026-04-22 16:41 18.69373 -78.73813 33037 ft 430 kts 282°
2026-04-22 16:41 18.70091 -78.76883 33423 ft 429 kts 282°
2026-04-22 16:42 18.70800 -78.79910 33797 ft 428 kts 282°
2026-04-22 16:42 18.71510 -78.82949 34179 ft 427 kts 282°
2026-04-22 16:42 18.72227 -78.86017 34558 ft 426 kts 282°
2026-04-22 16:42 18.72929 -78.89024 34984 ft 424 kts 282°
2026-04-22 16:43 18.73635 -78.92054 35341 ft 423 kts 282°
2026-04-22 16:43 18.74335 -78.95055 35650 ft 424 kts 282°
2026-04-22 16:43 18.75034 -78.98058 35999 ft 423 kts 282°
2026-04-22 16:43 18.75736 -79.01071 36327 ft 422 kts 282°
2026-04-22 16:44 18.76432 -79.04069 36639 ft 422 kts 282°
2026-04-22 16:44 18.77128 -79.07072 36930 ft 422 kts 282°
2026-04-22 16:44 18.77825 -79.10075 37212 ft 421 kts 282°
2026-04-22 16:44 18.78520 -79.13079 37471 ft 421 kts 282°
2026-04-22 16:45 18.79215 -79.16073 37709 ft 421 kts 282°
2026-04-22 16:45 18.79906 -79.19062 37971 ft 420 kts 282°
2026-04-22 16:45 18.80598 -79.22056 38030 ft 418 kts 282°
2026-04-22 16:46 18.81970 -79.28001 38038 ft 418 kts 282°
2026-04-22 16:46 18.83356 -79.34010 38029 ft 426 kts 282°
2026-04-22 16:47 18.84744 -79.40037 38022 ft 424 kts 282°
2026-04-22 16:47 18.86132 -79.46079 38021 ft 423 kts 282°
2026-04-22 16:48 18.87515 -79.52103 38016 ft 424 kts 282°
2026-04-22 16:48 18.88901 -79.58153 38020 ft 424 kts 282°
2026-04-22 16:49 18.90278 -79.64171 38020 ft 424 kts 282°
2026-04-22 16:49 18.91638 -79.70128 38031 ft 425 kts 281°
2026-04-22 16:50 18.93021 -79.76187 38037 ft 424 kts 281°
2026-04-22 16:50 18.94395 -79.82225 38036 ft 423 kts 282°
2026-04-22 16:51 18.95770 -79.88269 38030 ft 423 kts 281°
2026-04-22 16:51 18.97141 -79.94308 38027 ft 424 kts 281°
2026-04-22 16:52 18.98490 -80.00264 38026 ft 424 kts 281°
2026-04-22 16:52 18.99859 -80.06311 38037 ft 423 kts 281°
2026-04-22 16:53 19.01223 -80.12353 38029 ft 425 kts 281°
2026-04-22 16:53 19.02586 -80.18394 38028 ft 424 kts 281°
2026-04-22 16:54 19.03953 -80.24468 38031 ft 424 kts 281°
2026-04-22 16:54 19.05322 -80.30546 38031 ft 424 kts 281°
2026-04-22 16:55 19.06679 -80.36594 38031 ft 425 kts 281°
2026-04-22 16:55 19.07996 -80.42470 38037 ft 424 kts 281°
2026-04-22 16:56 19.09350 -80.48522 38036 ft 424 kts 281°
2026-04-22 16:56 19.10701 -80.54569 38032 ft 425 kts 281°
2026-04-22 16:57 19.12053 -80.60632 38037 ft 424 kts 281°
2026-04-22 16:57 19.13398 -80.66671 38044 ft 424 kts 281°
2026-04-22 16:58 19.14524 -80.71732 38048 ft 424 kts 281°
2026-04-22 16:58 19.16096 -80.78814 38052 ft 424 kts 281°
2026-04-22 16:59 19.17440 -80.84883 38048 ft 424 kts 281°
2026-04-22 16:59 19.18790 -80.90987 38050 ft 424 kts 281°
2026-04-22 17:00 19.20126 -80.97036 38050 ft 424 kts 281°
2026-04-22 17:00 19.22135 -81.06151 38053 ft 425 kts 281°
2026-04-22 17:01 19.23473 -81.12231 38054 ft 425 kts 281°
2026-04-22 17:01 19.24815 -81.18341 38055 ft 425 kts 281°
2026-04-22 17:02 19.26144 -81.24403 38056 ft 424 kts 281°
2026-04-22 17:02 19.27475 -81.30488 38055 ft 423 kts 281°
2026-04-22 17:03 19.28802 -81.36560 38054 ft 424 kts 281°
2026-04-22 17:03 19.30230 -81.42574 38051 ft 424 kts 282°
2026-04-22 17:04 19.31677 -81.48605 38048 ft 423 kts 282°
2026-04-22 17:04 19.33123 -81.54650 38046 ft 423 kts 282°
2026-04-22 17:05 19.34565 -81.60686 38045 ft 424 kts 282°
2026-04-22 17:05 19.36015 -81.66766 38052 ft 424 kts 282°
2026-04-22 17:06 19.37456 -81.72816 38050 ft 423 kts 282°
2026-04-22 17:06 19.38889 -81.78842 38050 ft 423 kts 282°
2026-04-22 17:07 19.40323 -81.84885 38050 ft 422 kts 282°
2026-04-22 17:07 19.41746 -81.90886 38049 ft 422 kts 282°
2026-04-22 17:08 19.43177 -81.96933 38049 ft 422 kts 282°
2026-04-22 17:08 19.44601 -82.02956 38048 ft 423 kts 282°
2026-04-22 17:09 19.46021 -82.08986 38048 ft 423 kts 282°
2026-04-22 17:09 19.47432 -82.14991 38047 ft 422 kts 282°
2026-04-22 17:10 19.48841 -82.21000 38047 ft 422 kts 282°
2026-04-22 17:10 19.50263 -82.27072 38044 ft 422 kts 282°
2026-04-22 17:11 19.51672 -82.33095 38044 ft 422 kts 282°
2026-04-22 17:11 19.53080 -82.39127 38044 ft 422 kts 282°
2026-04-22 17:12 19.54482 -82.45143 38043 ft 421 kts 282°
2026-04-22 17:12 19.55882 -82.51158 38043 ft 422 kts 282°
2026-04-22 17:13 19.57261 -82.57089 38042 ft 422 kts 282°
2026-04-22 17:13 19.58664 -82.63139 38041 ft 421 kts 282°
2026-04-22 17:14 19.60064 -82.69183 38054 ft 421 kts 282°
2026-04-22 17:14 19.61457 -82.75209 38052 ft 420 kts 282°
2026-04-22 17:15 19.62844 -82.81216 38050 ft 421 kts 282°
2026-04-22 17:15 19.64222 -82.87195 38050 ft 421 kts 282°
2026-04-22 17:16 19.65613 -82.93241 38050 ft 421 kts 282°
2026-04-22 17:16 19.66996 -82.99259 38048 ft 421 kts 282°
2026-04-22 17:17 19.68378 -83.05284 38049 ft 421 kts 282°
2026-04-22 17:17 19.69758 -83.11311 38047 ft 421 kts 282°
2026-04-22 17:18 19.71140 -83.17355 38049 ft 421 kts 282°
2026-04-22 17:18 19.72511 -83.23358 38051 ft 421 kts 282°
2026-04-22 17:19 19.75256 -83.35414 38051 ft 420 kts 282°
2026-04-22 17:20 19.77987 -83.47450 38049 ft 420 kts 282°
2026-04-22 17:21 19.80035 -83.56495 38050 ft 420 kts 282°
2026-04-22 17:22 19.82064 -83.65485 38055 ft 421 kts 282°
2026-04-22 17:23 19.84099 -83.74524 38061 ft 421 kts 281°
2026-04-22 17:23 19.86144 -83.83626 38050 ft 422 kts 281°
2026-04-22 17:24 19.87503 -83.89690 38050 ft 421 kts 281°
2026-04-22 17:24 19.88857 -83.95740 38049 ft 422 kts 281°
2026-04-22 17:25 19.90200 -84.01756 38048 ft 422 kts 281°
2026-04-22 17:25 19.91561 -84.07858 38048 ft 422 kts 281°
2026-04-22 17:26 19.92904 -84.13890 38046 ft 421 kts 281°
2026-04-22 17:26 19.94249 -84.19938 38046 ft 421 kts 281°
2026-04-22 17:27 19.95544 -84.25780 38046 ft 421 kts 282°
2026-04-22 17:27 19.96847 -84.31657 38045 ft 420 kts 282°
2026-04-22 17:28 19.98133 -84.37505 38044 ft 416 kts 281°
2026-04-22 17:28 19.99406 -84.43339 38044 ft 413 kts 281°
2026-04-22 17:29 20.00615 -84.48891 38043 ft 413 kts 281°
2026-04-22 17:29 20.01909 -84.54839 38043 ft 413 kts 281°
2026-04-22 17:30 20.03198 -84.60772 38043 ft 414 kts 281°
2026-04-22 17:30 20.04477 -84.66672 38054 ft 414 kts 281°
2026-04-22 17:31 20.05753 -84.72570 38054 ft 413 kts 281°
2026-04-22 17:31 20.06810 -84.77463 38052 ft 413 kts 281°
2026-04-22 17:32 20.08012 -84.83030 38052 ft 412 kts 281°
2026-04-22 17:32 20.09215 -84.88610 38054 ft 413 kts 281°
2026-04-22 17:33 20.10496 -84.94568 38050 ft 414 kts 281°
2026-04-22 17:33 20.11722 -85.00280 38053 ft 414 kts 281°
2026-04-22 17:34 20.12978 -85.06140 38051 ft 412 kts 281°
2026-04-22 17:34 20.14250 -85.12080 38052 ft 411 kts 281°
2026-04-22 17:35 20.14885 -85.15053 37898 ft 415 kts 281°
2026-04-22 17:35 20.15530 -85.18080 37497 ft 416 kts 281°
2026-04-22 17:35 20.16166 -85.21056 37214 ft 412 kts 281°
2026-04-22 17:35 20.16802 -85.24040 36801 ft 415 kts 281°
2026-04-22 17:36 20.17441 -85.27043 36054 ft 418 kts 281°
2026-04-22 17:36 20.18080 -85.30042 35415 ft 418 kts 281°
2026-04-22 17:36 20.18720 -85.33050 34769 ft 417 kts 281°
2026-04-22 17:36 20.19191 -85.36100 34139 ft 415 kts 276°
2026-04-22 17:37 20.19550 -85.39088 33529 ft 415 kts 276°
2026-04-22 17:37 20.19919 -85.42130 32855 ft 416 kts 276°
2026-04-22 17:37 20.20294 -85.45229 32134 ft 419 kts 276°
2026-04-22 17:37 20.20641 -85.48097 31485 ft 421 kts 276°
2026-04-22 17:38 20.21019 -85.51228 30836 ft 421 kts 276°
2026-04-22 17:38 20.21388 -85.54281 30285 ft 420 kts 277°
2026-04-22 17:38 20.21670 -85.56620 29881 ft 418 kts 277°
2026-04-22 17:38 20.22039 -85.59686 29357 ft 416 kts 277°
2026-04-22 17:39 20.22404 -85.62722 28801 ft 414 kts 277°
2026-04-22 17:39 20.22770 -85.65768 28205 ft 413 kts 277°
2026-04-22 17:39 20.23496 -85.71827 27076 ft 410 kts 277°
2026-04-22 17:40 20.23852 -85.74813 26572 ft 407 kts 277°
2026-04-22 17:40 20.24210 -85.77812 26092 ft 402 kts 277°
2026-04-22 17:40 20.24561 -85.80756 25627 ft 398 kts 277°
2026-04-22 17:40 20.24908 -85.83669 25154 ft 394 kts 277°
2026-04-22 17:41 20.25250 -85.86545 24661 ft 391 kts 277°
2026-04-22 17:41 20.25588 -85.89399 24150 ft 388 kts 277°
2026-04-22 17:41 20.25926 -85.92250 23619 ft 385 kts 277°
2026-04-22 17:41 20.26259 -85.95066 23084 ft 382 kts 277°
2026-04-22 17:42 20.26588 -85.97852 22551 ft 380 kts 277°
2026-04-22 17:42 20.26920 -86.00666 22031 ft 377 kts 278°
2026-04-22 17:42 20.27245 -86.03417 21524 ft 374 kts 278°
2026-04-22 17:42 20.27568 -86.06163 21053 ft 372 kts 278°
2026-04-22 17:43 20.27891 -86.08916 20549 ft 381 kts 278°
2026-04-22 17:43 20.28217 -86.11716 20023 ft 379 kts 278°
2026-04-22 17:43 20.28541 -86.14490 19509 ft 374 kts 278°
2026-04-22 17:43 20.28857 -86.17200 19011 ft 370 kts 278°
2026-04-22 17:44 20.29171 -86.19904 18516 ft 366 kts 278°
2026-04-22 17:44 20.29482 -86.22578 18028 ft 361 kts 278°
2026-04-22 17:44 20.29789 -86.25227 17545 ft 357 kts 278°
2026-04-22 17:44 20.30089 -86.27819 17077 ft 354 kts 278°
2026-04-22 17:45 20.30393 -86.30442 16611 ft 350 kts 278°
2026-04-22 17:45 20.30688 -86.32995 16154 ft 347 kts 278°
2026-04-22 17:45 20.30989 -86.35521 15705 ft 344 kts 278°
2026-04-22 17:45 20.31290 -86.38048 15253 ft 343 kts 278°
2026-04-22 17:46 20.31591 -86.40578 14788 ft 341 kts 278°
2026-04-22 17:46 20.31888 -86.43074 14318 ft 341 kts 278°
2026-04-22 17:46 20.32181 -86.45545 13844 ft 340 kts 278°
2026-04-22 17:46 20.32478 -86.48049 13357 ft 339 kts 278°
2026-04-22 17:47 20.32770 -86.50527 12879 ft 338 kts 278°
2026-04-22 17:47 20.33063 -86.53008 12408 ft 337 kts 278°
2026-04-22 17:47 20.33357 -86.55497 11945 ft 335 kts 278°
2026-04-22 17:47 20.33645 -86.57936 11509 ft 333 kts 278°
2026-04-22 17:48 20.33933 -86.60377 11089 ft 331 kts 278°
2026-04-22 17:48 20.34220 -86.62820 10692 ft 328 kts 278°
2026-04-22 17:48 20.34503 -86.65230 10322 ft 325 kts 278°
2026-04-22 17:48 20.34779 -86.67582 10230 ft 318 kts 278°
2026-04-22 17:49 20.35049 -86.69888 10115 ft 308 kts 278°
2026-04-22 17:49 20.35314 -86.72140 10003 ft 297 kts 278°
2026-04-22 17:49 20.35572 -86.74297 9864 ft 288 kts 280°
2026-04-22 17:49 20.36295 -86.76257 9543 ft 282 kts 307°
2026-04-22 17:50 20.37544 -86.77815 9297 ft 277 kts 308°
2026-04-22 17:50 20.38492 -86.79492 8962 ft 279 kts 297°
2026-04-22 17:50 20.39312 -86.81384 8646 ft 278 kts 294°
2026-04-22 17:50 20.40062 -86.83278 8343 ft 277 kts 293°
2026-04-22 17:51 20.40792 -86.85175 8061 ft 276 kts 293°
2026-04-22 17:51 20.41514 -86.87063 7786 ft 274 kts 292°
2026-04-22 17:51 20.42222 -86.88919 7505 ft 272 kts 292°
2026-04-22 17:51 20.42931 -86.90781 7243 ft 269 kts 293°
2026-04-22 17:52 20.43635 -86.92629 6995 ft 267 kts 292°
2026-04-22 17:52 20.44332 -86.94461 6742 ft 265 kts 292°
2026-04-22 17:52 20.45024 -86.96281 6493 ft 264 kts 292°
2026-04-22 17:52 20.45717 -86.98102 6233 ft 263 kts 292°
2026-04-22 17:53 20.46395 -86.99885 5983 ft 262 kts 292°
2026-04-22 17:53 20.47085 -87.01703 5715 ft 261 kts 292°
2026-04-22 17:53 20.47759 -87.03478 5454 ft 261 kts 292°
2026-04-22 17:53 20.48442 -87.05276 5165 ft 261 kts 292°
2026-04-22 17:54 20.49127 -87.07081 4873 ft 262 kts 292°
2026-04-22 17:54 20.49808 -87.08877 4572 ft 263 kts 292°
2026-04-22 17:54 20.50574 -87.10639 4246 ft 263 kts 306°
2026-04-22 17:54 20.51940 -87.11916 3958 ft 260 kts 336°
2026-04-22 17:55 20.53707 -87.12312 3765 ft 259 kts
2026-04-22 17:55 20.55382 -87.11788 3595 ft 249 kts 29°
2026-04-22 17:55 20.56883 -87.10907 3435 ft 241 kts 41°
2026-04-22 17:55 20.58091 -87.09716 3332 ft 231 kts 48°
2026-04-22 17:56 20.58861 -87.08284 3035 ft 220 kts 82°
2026-04-22 17:56 20.58571 -87.06786 2880 ft 203 kts 124°
2026-04-22 17:56 20.57763 -87.05621 2822 ft 186 kts 119°
2026-04-22 17:56 20.57015 -87.04501 2368 ft 181 kts 127°
2026-04-22 17:57 20.56326 -87.03482 2086 ft 159 kts 121°
2026-04-22 17:57 20.55738 -87.02520 1618 ft 147 kts 110°
2026-04-22 17:57 20.55395 -87.01553 1397 ft 134 kts 108°
2026-04-22 17:57 20.55028 -87.00619 1184 ft 135 kts 119°
2026-04-22 17:58 20.54588 -86.99761 1052 ft 132 kts 114°
2026-04-22 17:58 20.54205 -86.98853 917 ft 132 kts 110°
2026-04-22 17:58 20.53807 -86.97955 754 ft 132 kts 112°
2026-04-22 17:58 20.53409 -86.97060 597 ft 132 kts 112°
2026-04-22 17:59 20.53001 -86.96177 426 ft 130 kts 112°
2026-04-22 17:59 20.52579 -86.95283 277 ft 132 kts 115°
2026-04-22 17:59 20.52196 -86.94398 128 ft 131 kts 114°
2026-04-22 17:59 20.51799 -86.93530 33 ft 125 kts 115°
2026-04-22 18:00 20.51583 -86.93052 34 ft 86 kts 115°
2026-04-22 18:00 20.51449 -86.92793 35 ft 15 kts 161°
2026-04-22 18:00 20.51374 -86.92809 35 ft 9 kts 202°
2026-04-22 18:00 20.51316 -86.92838 35 ft 8 kts 207°
2026-04-22 18:01 20.51268 -86.92865 35 ft 6 kts 206°
2026-04-22 18:01 20.51236 -86.92881 35 ft 3 kts 204°
2026-04-22 18:01 20.51216 -86.92891 35 ft 2 kts 205°
2026-04-22 18:01 20.51200 -86.92902 35 ft 2 kts 221°
2026-04-22 18:02 20.51188 -86.92918 35 ft 2 kts 237°
2026-04-22 18:02 20.51182 -86.92938 35 ft 1 kts 260°
2026-04-22 18:02 20.51182 -86.92941 35 ft 0 kts 260°